This is the latest recevied weather packets stored in our database for station/object E25HA-1. If no packets are shown the sender has not sent any weather packets the latest 10 day(s).
| Time | Temp. | Humidity | Pressure | Rain* | Wind** | Luminosity | Snow |
|---|---|---|---|---|---|---|---|
| 1777600595 | 31.67° C | 99% | 991 hPa | - | - | 6 W/m² | - |
| 1777600273 | 31.11° C | 99% | 991 hPa | - | - | 6 W/m² | - |
| 1777599951 | 31.11° C | 99% | 991 hPa | - | - | 5 W/m² | - |
| 1777599628 | 30.56° C | 99% | 991 hPa | - | - | 5 W/m² | - |
| 1777599306 | 30° C | 99% | 991 hPa | - | - | 5 W/m² | - |
| 1777598984 | 29.44° C | 99% | 991 hPa | - | - | 5 W/m² | - |
| 1777598661 | 28.89° C | 99% | 991 hPa | - | - | 4 W/m² | - |
| 1777598339 | 28.33° C | 99% | 991 hPa | - | - | 4 W/m² | - |
| 1777598016 | 27.78° C | 99% | 991 hPa | - | - | 4 W/m² | - |
| 1777535405 | 37.78° C | 99% | 989 hPa | - | - | 5 W/m² | - |
| 1777535082 | 37.78° C | 99% | 989 hPa | - | - | 5 W/m² | - |
| 1777534760 | 37.78° C | 99% | 989 hPa | - | - | 5 W/m² | - |
| 1777534437 | 37.78° C | 99% | 990 hPa | - | - | 4 W/m² | - |
| 1777534115 | 37.78° C | 99% | 990 hPa | - | - | 4 W/m² | - |
| 1777533793 | 38.33° C | 99% | 990 hPa | - | - | 3 W/m² | - |
| 1777533470 | 38.33° C | 99% | 990 hPa | - | - | 4 W/m² | - |
| 1777533147 | 38.33° C | 99% | 990 hPa | - | - | 6 W/m² | - |
| 1777532825 | 38.89° C | 99% | 990 hPa | - | - | 5 W/m² | - |
| 1777532503 | 38.89° C | 99% | 990 hPa | - | - | 5 W/m² | - |
| 1777532180 | 39.44° C | 99% | 990 hPa | - | - | 5 W/m² | - |
| 1777531857 | 39.44° C | 99% | 990 hPa | - | - | 13 W/m² | - |
| 1777531535 | 38.89° C | 99% | 990 hPa | - | - | 18 W/m² | - |
| 1777531212 | 38.89° C | 99% | 990 hPa | - | - | 18 W/m² | - |
| 1777530890 | 38.33° C | 99% | 990 hPa | - | - | 18 W/m² | - |
| 1777530567 | 38.33° C | 99% | 990 hPa | - | - | 18 W/m² | - |
* Rain since midnight (hover to see other rain measurements)
** Current wind speed in m/s (hover to see current wind gust speed)